FW7766 Weather Reports


Display with metric or nautical units.
time (UTC)temp
F
wind
direction
speed
MPH
gust
MPH
rain 1hr
in
rain 24hr
in
rain mn
in
humidity
%
barometer
mb
20260506131524 64 0.0 0.0 0.00 0.00 0.00 55 1014.2
20260506130521 63 270 0.0 1.0 0.00 0.00 0.00 56 1014.3
20260506125517 63 270 0.0 1.0 0.00 0.00 0.00 57 1014.0
20260506124635 62 180 0.0 2.0 0.00 0.00 0.00 57 1013.6
20260506123611 62 0.0 0.0 0.00 0.00 0.00 57 1013.9
20260506122608 62 0.0 0.0 0.00 0.00 0.00 57 1014.2
20260506121604 62 0.0 0.0 0.00 0.00 0.00 57 1014.2
20260506120601 62 0.0 0.0 0.00 0.00 0.00 57 1014.3
20260506115558 61 0.0 0.0 0.00 0.00 0.00 57 1014.2
20260506114633 61 0.0 0.0 0.00 0.00 0.00 57 1014.1
20260506113550 61 0.0 0.0 0.00 0.00 0.00 57 1013.8
20260506112627 61 0.0 0.0 0.00 0.00 0.00 57 1013.7
20260506111543 61 0.0 0.0 0.00 0.00 0.00 57 1013.7
20260506110540 61 0.0 0.0 0.00 0.00 0.00 57 1013.9
20260506105536 61 0.0 0.0 0.00 0.00 0.00 57 1013.8
20260506104613 61 0.0 0.0 0.00 0.00 0.00 57 1013.5
20260506103530 61 0.0 0.0 0.00 0.00 0.00 57 1013.3
20260506102546 61 0.0 0.0 0.00 0.00 0.00 57 1013.1
20260506101542 61 270 0.0 1.0 0.00 0.00 0.00 57 1013.2
20260506100519 62 0.0 0.0 0.00 0.00 0.00 57 1013.2
20260506095616 62 0.0 0.0 0.00 0.00 0.00 57 1013.2
20260506094613 62 0.0 0.0 0.00 0.00 0.00 57 1013.2
20260506093610 62 0.0 0.0 0.00 0.00 0.00 57 1013.3
20260506092626 62 0.0 0.0 0.00 0.00 0.00 57 1013.3
20260506091602 62 0.0 0.0 0.00 0.00 0.00 57 1013.4
20260506090559 62 270 0.0 1.0 0.00 0.00 0.00 57 1013.4
20260506085555 62 0.0 0.0 0.00 0.00 0.00 56 1013.5
20260506084552 62 270 0.0 1.0 0.00 0.00 0.00 56 1013.5
20260506083609 62 0.0 0.0 0.00 0.00 0.00 56 1013.6
20260506082545 63 0.0 0.0 0.00 0.00 0.00 56 1013.8
20260506081541 63 0.0 0.0 0.00 0.00 0.00 55 1013.8
20260506080538 63 0.0 0.0 0.00 0.00 0.00 55 1013.7
20260506073528 64 0.0 0.0 0.00 0.00 0.00 50 1014.0
20260506072525 64 270 0.0 2.0 0.00 0.00 0.00 50 1013.8
20260506071541 64 0.0 1.0 0.00 0.00 0.00 49 1013.5
20260506070518 64 0.0 0.0 0.00 0.00 0.00 49 1013.8
20260506061600 64 255 0.0 1.0 0.00 0.00 0.00 48 1014.1
20260506060556 64 0.0 0.0 0.00 0.00 0.00 47 1014.1
20260506050536 65 214 1.0 1.0 0.00 0.00 0.00 46 1014.1
20260506044530 65 0.0 0.0 0.00 0.00 0.00 45 1014.1
20260506043526 65 270 0.0 1.0 0.00 0.00 0.00 45 1014.0
20260506042523 65 0.0 0.0 0.00 0.00 0.00 40 1014.0
20260506041519 66 243 1.0 3.0 0.00 0.00 0.00 40 1014.1
20260506040516 66 270 1.0 3.0 0.00 0.00 0.00 40 1014.2
20260506035613 66 225 1.0 3.0 0.00 0.00 0.00 40 1014.2
20260506034609 66 270 0.0 2.0 0.00 0.00 0.00 40 1014.0
20260506033606 66 270 0.0 2.0 0.00 0.00 0.00 40 1013.9
20260506032602 66 270 0.0 1.0 0.00 0.00 0.00 40 1013.9
20260506031559 66 180 0.0 3.0 0.00 0.00 0.00 40 1014.0
20260506030556 66 0.0 1.0 0.00 0.00 0.00 40 1013.9
20260506025552 66 0.0 1.0 0.00 0.00 0.00 40 1014.1
20260506024549 66 180 0.0 1.0 0.00 0.00 0.00 40 1014.2
20260506023546 65 158 0.0 1.0 0.00 0.00 0.00 40 1014.3
20260506022542 67 180 1.0 2.0 0.00 0.00 0.00 40 1014.3
20260506021539 66 180 0.0 2.0 0.00 0.00 0.00 40 1014.4
20260506020535 64 270 1.0 1.0 0.00 0.00 0.00 45 1014.5
20260506015532 64 0.0 0.0 0.00 0.00 0.00 42 1014.4
20260506014529 65 0.0 0.0 0.00 0.00 0.00 40 1014.3
20260506013525 65 270 0.0 1.0 0.00 0.00 0.00 40 1014.4
20260506012541 67 0.0 0.0 0.00 0.00 0.00 40 1014.3
20260506011519 68 0.0 0.0 0.00 0.00 0.00 44 1014.2
20260506010515 69 0.0 0.0 0.00 0.00 0.00 44 1014.1
20260506005612 69 0.0 0.0 0.00 0.00 0.00 44 1014.0
20260506004609 70 0.0 0.0 0.00 0.00 0.00 44 1013.9
20260506003605 70 0.0 0.0 0.00 0.00 0.00 44 1013.9
20260506002621 71 0.0 0.0 0.00 0.00 0.00 44 1013.8
20260506001558 71 0.0 0.0 0.00 0.00 0.00 44 1013.8
20260506000554 72 0.0 0.0 0.00 0.00 0.00 44 1013.7
20260505235631 73 270 0.0 1.0 0.00 0.00 0.00 44 1013.7
20260505234548 73 0.0 1.0 0.00 0.00 0.00 44 1013.7
20260505233544 73 270 0.0 1.0 0.00 0.00 0.00 44 1013.6
20260505232541 74 270 0.0 1.0 0.00 0.00 0.00 44 1013.5
20260505231538 74 270 1.0 4.0 0.00 0.00 0.00 44 1013.4
20260505230534 75 252 1.0 2.0 0.00 0.00 0.00 44 1013.4
20260505225530 75 270 1.0 2.0 0.00 0.00 0.00 44 1013.4
20260505224528 75 219 1.0 3.0 0.00 0.00 0.00 44 1013.4
20260505223524 76 256 3.0 6.0 0.00 0.00 0.00 44 1013.5
20260505222521 76 270 2.0 3.0 0.00 0.00 0.00 44 1013.7
20260505221517 76 248 1.0 3.0 0.00 0.00 0.00 44 1013.6
20260505220613 76 270 1.0 2.0 0.00 0.00 0.00 44 1013.6
20260505215611 76 245 1.0 2.0 0.00 0.00 0.00 44 1013.7
20260505214607 76 261 2.0 5.0 0.00 0.00 0.00 44 1013.7
20260505213603 77 238 4.0 7.0 0.00 0.00 0.00 44 1013.9
20260505212601 77 251 2.0 3.0 0.00 0.00 0.00 44 1014.0
20260505211557 78 243 1.0 3.0 0.00 0.00 0.00 44 1013.8
20260505210553 78 270 2.0 3.0 0.00 0.00 0.00 44 1013.9
20260505205610 77 254 2.0 3.0 0.00 0.00 0.00 44 1014.1
20260505204546 77 250 2.0 3.0 0.00 0.00 0.00 44 1014.1
20260505203543 78 261 2.0 4.0 0.00 0.00 0.00 44 1014.1
20260505202539 78 261 1.0 2.0 0.00 0.00 0.00 44 1014.1
20260505201536 78 251 2.0 5.0 0.00 0.00 0.00 44 1014.1
20260505200533 77 270 2.0 3.0 0.00 0.00 0.00 44 1014.4
20260505195529 78 270 1.0 3.0 0.00 0.00 0.00 44 1014.5
20260505194526 78 252 2.0 3.0 0.00 0.00 0.00 44 1014.4
20260505193543 78 238 2.0 5.0 0.00 0.00 0.00 44 1014.6
20260505192519 78 208 1.0 3.0 0.00 0.00 0.00 44 1014.7
20260505191515 77 255 2.0 3.0 0.00 0.00 0.00 44 1014.8
20260505190612 77 244 2.0 4.0 0.00 0.00 0.00 44 1015.0
20260505185610 76 241 3.0 6.0 0.00 0.00 0.00 44 1015.3
20260505184606 76 246 3.0 7.0 0.00 0.00 0.00 44 1015.4
20260505183602 77 239 3.0 8.0 0.00 0.00 0.00 44 1015.6
20260505182559 77 270 1.0 2.0 0.00 0.00 0.00 44 1015.7
20260505181556 77 209 3.0 6.0 0.00 0.00 0.00 44 1015.8
20260505180551 77 270 1.0 2.0 0.00 0.00 0.00 44 1015.7
20260505175548 77 270 2.0 3.0 0.00 0.00 0.00 44 1015.8
20260505174544 76 270 2.0 5.0 0.00 0.00 0.00 44 1015.7
20260505173600 77 270 1.0 3.0 0.00 0.00 0.00 44 1015.9
20260505172617 76 270 1.0 3.0 0.00 0.00 0.00 44 1015.9
20260505171534 76 270 2.0 3.0 0.00 0.00 0.00 44 1016.1
20260505170530 76 270 1.0 3.0 0.00 0.00 0.00 44 1016.2
20260505165528 77 270 1.0 2.0 0.00 0.00 0.00 44 1016.4
20260505164523 77 270 1.0 3.0 0.00 0.00 0.00 44 1016.4
20260505163520 78 270 1.0 3.0 0.00 0.00 0.00 44 1016.5
20260505162537 77 270 3.0 4.0 0.00 0.00 0.00 44 1016.6
20260505161614 79 270 1.0 3.0 0.00 0.00 0.00 44 1016.6
20260505160610 78 270 1.0 2.0 0.00 0.00 0.00 44 1016.7
20260505152617 71 270 1.0 2.0 0.00 0.00 0.00 43 1017.1
20260505151613 69 0.0 0.0 0.00 0.00 0.00 40 1017.1
20260505150550 68 270 1.0 2.0 0.00 0.00 0.00 40 1017.1
20260505140529 63 270 1.0 2.0 0.00 0.00 0.00 47 1017.0